[[{"header":{"parameterUnit":"m.s-1","parameterCategory":1,"la1":30.2991,"la2":30.254,"lo1":-89.0895,"lo2":-89.0444,"dy":0.0017,"dx":0.0017,"nx":28,"ny":28,"refTime":"2025-12-10T09:00:00:Z","depth":0,"parameterNumber":2,"parameterNumberName":"U-component_of_WINDS"},"data":[0,0,0,0,0,0,0,0,0,0,0,0,0,0,0,0,0,0,0,0,0,0,0,0,0,0,0,0,0,0,0,0,0,0,0,0,0,0,0,0,0,0,0,0,0,0,0,0,0,0,0,0,0,0,0,0,0,0,-1.154,-1.1539,0,-1.1497,-1.1496,-1.1496,-1.1426,-1.1425,-1.1423,-1.1422,-1.138,-1.138,-1.138,0,0,0,0,0,0,0,0,0,0,0,0,0,-1.1563,-1.1563,-1.154,-1.1539,-1.1539,-1.1497,-1.1496,-1.1496,-1.1426,-1.1425,-1.1423,-1.1422,-1.138,-1.138,-1.138,0,0,0,0,0,0,0,0,0,0,0,0,0,-1.154,-1.1563,-1.154,-1.1499,-1.1495,-1.1497,-1.1496,-1.1496,-1.1427,-1.1425,-1.1423,-1.1421,-1.138,-1.138,-1.138,-1.142,0,0,-1.1381,-1.1381,0,0,0,0,0,0,0,0,-1.1541,-1.1539,-1.1505,-1.1502,-1.1497,-1.1465,-1.1489,-1.147,-1.1427,-1.1453,-1.1422,-1.142,-1.141,-1.1408,-1.1404,-1.1418,-1.1416,-1.1381,-1.1381,-1.1381,-1.1381,0,0,0,0,0,0,0,-1.1543,-1.154,-1.1523,-1.1505,-1.15,-1.1483,-1.1478,-1.1485,-1.1443,-1.145,-1.1445,-1.1441,-1.1407,-1.1404,-1.1402,-1.1415,-1.1381,-1.1381,-1.1381,-1.1381,-1.146,-1.1462,0,0,0,0,0,0,-1.155,-1.1542,-1.1524,-1.1521,-1.1515,-1.1484,-1.1478,-1.1477,-1.1442,-1.1435,-1.1442,-1.1438,-1.1405,-1.1402,-1.1401,-1.1445,-1.1381,-1.1381,-1.1381,-1.1458,-1.1461,-1.1463,0,0,0,0,0,0,-1.1551,-1.1549,-1.1526,-1.153,-1.1526,-1.1486,-1.1485,-1.1477,-1.1474,-1.1437,-1.1429,-1.1447,-1.1403,-1.14,-1.1416,-1.1443,-1.1381,-1.1381,-1.1456,-1.1459,-1.1462,-1.1535,0,0,0,0,0,0,-1.1552,-1.155,-1.1564,-1.1531,-1.1526,-1.1541,-1.1487,-1.1478,-1.1474,-1.1467,-1.1438,-1.1432,-1.1401,-1.1416,-1.1416,-1.1442,-1.1381,-1.1453,-1.1457,-1.1461,-1.153,-1.154,-1.1548,0,0,0,0,0,-1.1553,-1.1586,-1.1565,-1.1563,-1.1543,-1.1543,-1.154,-1.1504,-1.1476,-1.1491,-1.1467,-1.1433,-1.144,-1.1418,-1.1417,-1.1444,-1.1451,-1.1456,-1.1461,-1.1525,-1.1538,-1.1548,0,0,0,0,0,0,-1.1624,-1.1581,-1.1557,-1.1581,-1.1566,-1.1531,-1.1548,-1.1518,-1.1511,-1.1505,-1.1461,-1.1455,-1.1476,-1.1461,-1.1438,-1.1481,-1.144,-1.1445,-1.149,-1.1501,-1.151,-1.1514,-1.1381,0,0,0,0,0,-1.1642,-1.1646,-1.1608,-1.1633,-1.1626,-1.1589,-1.1587,-1.1561,-1.1544,-1.1537,-1.1514,-1.15,-1.1499,-1.1499,-1.1496,-1.1527,-1.152,-1.1545,-1.1554,-1.1562,-1.1567,-1.1583,-1.1594,-1.1478,-1.1478,-1.1478,0,0,-1.1681,-1.1658,-1.1662,-1.1647,-1.1632,-1.1637,-1.1584,-1.1591,-1.1595,-1.1538,-1.1552,-1.1534,-1.1515,-1.1539,-1.1548,-1.1527,-1.1597,-1.1568,-1.1574,-1.1575,-1.1589,-1.16,-1.161,-1.1481,-1.1481,-1.148,0,0,-1.1753,-1.1735,-1.1754,-1.1741,-1.1719,-1.1694,-1.1698,-1.1668,-1.1654,-1.1666,-1.1625,-1.1628,-1.1627,-1.1615,-1.1609,-1.1677,-1.1646,-1.1677,-1.1727,-1.1744,-1.1753,-1.1761,-1.1786,-1.1796,-1.1682,-1.1682,-1.1682,0,-1.1804,-1.1809,-1.1768,-1.1778,-1.1773,-1.1721,-1.1741,-1.173,-1.1708,-1.1706,-1.1683,-1.168,-1.1664,-1.1684,-1.1701,-1.1697,-1.1702,-1.1681,-1.1754,-1.1762,-1.1769,-1.1793,-1.1802,-1.1686,-1.1686,-1.1685,-1.1685,0,-1.1872,-1.1877,-1.1895,-1.1875,-1.1872,-1.1886,-1.1849,-1.185,-1.1824,-1.1801,-1.1815,-1.1793,-1.1785,-1.1787,-1.1762,-1.1805,-1.1793,-1.1762,-1.1721,-1.1785,-1.1807,-1.1815,-1.1692,-1.1691,-1.1689,-1.1688,0,0,-1.1989,-1.1947,-1.1954,-1.1945,-1.1917,-1.192,-1.1933,-1.1924,-1.1927,-1.1914,-1.1924,-1.1924,-1.1896,-1.1889,-1.1862,-1.1876,-1.1933,-1.1844,-1.1843,-1.1863,-1.1981,-1.2005,-1.2016,-1.1912,-1.1913,-1.1914,-1.1983,0,-1.2057,-1.2076,-1.204,-1.2068,-1.2072,-1.2023,-1.2034,-1.2019,-1.1998,-1.1999,-1.1976,-1.1977,-1.1939,-1.1935,-1.1947,-1.1924,-1.1956,-1.1918,-1.1922,-1.1923,-1.193,-1.2027,-1.2052,-1.2118,-1.1991,-1.1992,-1.1993,0,-1.2139,-1.2129,-1.2158,-1.2129,-1.2129,-1.214,-1.2129,-1.213,-1.2112,-1.2096,-1.2089,-1.2056,-1.2067,-1.2027,-1.2042,-1.2017,-1.2016,-1.2005,-1.2007,-1.2007,-1.1963,-1.2031,-1.2137,-1.2148,-1.2006,-1.2005,-1.2004,0,-1.2223,-1.2217,-1.2234,-1.2227,-1.2193,-1.2202,-1.2189,-1.2168,-1.2166,-1.2157,-1.2155,-1.2148,-1.2144,-1.214,-1.2106,-1.208,-1.2126,-1.2083,-1.2114,-1.2115,-1.2127,-1.2127,-1.2237,-1.2125,-1.2125,-1.2125,-1.2124,0,-1.2303,-1.2323,-1.2271,-1.2282,-1.2302,-1.2261,-1.2282,-1.2264,-1.2246,-1.2253,-1.221,-1.2217,-1.2172,-1.2174,-1.2148,-1.2166,-1.2164,-1.2152,-1.2145,-1.2157,-1.2159,-1.2157,-1.2152,-1.2127,-1.2127,-1.2126,-1.2126,0,-1.2401,-1.2367,-1.2382,-1.2349,-1.2341,-1.2358,-1.2329,-1.2338,-1.2314,-1.2323,-1.2323,-1.2286,-1.2286,-1.2252,-1.2246,-1.2229,-1.2258,-1.2242,-1.2264,-1.226,-1.2294,-1.2292,-1.2407,-1.2421,-1.2299,-1.23,-1.2301,0,-1.2455,-1.2469,-1.2437,-1.2438,-1.2427,-1.2429,-1.2426,-1.2385,-1.2384,-1.2365,-1.2376,-1.2373,-1.2369,-1.2372,-1.2345,-1.234,-1.2325,-1.2366,-1.2324,-1.2336,-1.2327,-1.2328,-1.2329,-1.2375,-1.2377,-1.2378,-1.2379,0,-1.2555,-1.2538,-1.2535,-1.2527,-1.2524,-1.2516,-1.2505,-1.2508,-1.2464,-1.2465,-1.2465,-1.2462,-1.2455,-1.2453,-1.2444,-1.243,-1.2398,-1.2392,-1.2399,-1.2412,-1.2425,-1.242,-1.229,-1.239,-1.2389,-1.2388,-1.2387,-1.2387,-1.2634,-1.2644,-1.2623,-1.2622,-1.2609,-1.26,-1.2607,-1.2584,-1.2583,-1.2574,-1.255,-1.2555,-1.2536,-1.252,-1.2509,-1.2513,-1.2492,-1.2503,-1.2506,-1.2509,-1.2516,-1.2423,-1.251,-1.251,-1.251,-1.2509,-1.2509,0,-1.2733,-1.2717,-1.2716,-1.2702,-1.2701,-1.2669,-1.2655,-1.2657,-1.2661,-1.2647,-1.2643,-1.2644,-1.2642,-1.2615,-1.2609,-1.2617,-1.2603,-1.2618,-1.2617,-1.2615,-1.2534,-1.2529,-1.263,-1.263,-1.263,-1.263,-1.263,-1.263,-1.2784,-1.2801,-1.2781,-1.2791,-1.2775,-1.2778,-1.2773,-1.2765,-1.2753,-1.2756,-1.2753,-1.2735,-1.2716,-1.2709,-1.2706,-1.2698,-1.2699,-1.272,-1.2707,-1.2632,-1.2621,-1.261,-1.2605,-1.272,-1.272,-1.2788,-1.2789,-1.2789]},{"header":{"parameterUnit":"m.s-1","parameterCategory":1,"la1":30.2991,"la2":30.254,"lo1":-89.0895,"lo2":-89.0444,"dy":0.0017,"dx":0.0017,"nx":28,"ny":28,"refTime":"2025-12-10T09:00:00:Z","depth":0,"parameterNumber":3,"parameterNumberName":"V-component_of_WINDS"},"data":[0,0,0,0,0,0,0,0,0,0,0,0,0,0,0,0,0,0,0,0,0,0,0,0,0,0,0,0,0,0,0,0,0,0,0,0,0,0,0,0,0,0,0,0,0,0,0,0,0,0,0,0,0,0,0,0,0,0,-1.6163,-1.6163,0,-1.6198,-1.6198,-1.6198,-1.6171,-1.617,-1.6168,-1.6167,-1.6202,-1.6204,-1.6206,0,0,0,0,0,0,0,0,0,0,0,0,0,-1.6072,-1.6073,-1.6163,-1.6163,-1.6164,-1.6197,-1.6198,-1.6198,-1.6171,-1.617,-1.6168,-1.6167,-1.6201,-1.6204,-1.6206,0,0,0,0,0,0,0,0,0,0,0,0,0,-1.6109,-1.6074,-1.6163,-1.6154,-1.6154,-1.6197,-1.6198,-1.6199,-1.6171,-1.6169,-1.6168,-1.6166,-1.6201,-1.6204,-1.6206,-1.626,0,0,-1.6216,-1.6217,0,0,0,0,0,0,0,0,-1.6107,-1.6113,-1.6155,-1.6155,-1.6154,-1.6178,-1.6178,-1.6219,-1.6172,-1.6165,-1.6167,-1.6165,-1.6195,-1.6199,-1.6209,-1.6262,-1.6264,-1.6216,-1.6218,-1.6219,-1.622,0,0,0,0,0,0,0,-1.6105,-1.6111,-1.6176,-1.6156,-1.6155,-1.6148,-1.6151,-1.6186,-1.6189,-1.6165,-1.6163,-1.6168,-1.6195,-1.6206,-1.621,-1.6264,-1.6216,-1.6219,-1.622,-1.6222,-1.6364,-1.6366,0,0,0,0,0,0,-1.6103,-1.6109,-1.6175,-1.6178,-1.6126,-1.6151,-1.6155,-1.6172,-1.6189,-1.619,-1.6169,-1.6166,-1.6202,-1.6206,-1.6211,-1.6276,-1.6219,-1.6222,-1.6224,-1.6362,-1.6364,-1.6366,0,0,0,0,0,0,-1.6101,-1.6109,-1.6174,-1.6143,-1.615,-1.6155,-1.6174,-1.6174,-1.6185,-1.6192,-1.6192,-1.618,-1.6201,-1.6207,-1.6249,-1.6277,-1.6223,-1.6226,-1.6359,-1.6362,-1.6365,-1.6407,0,0,0,0,0,0,-1.6099,-1.6109,-1.6129,-1.6143,-1.6152,-1.6212,-1.6176,-1.6176,-1.6191,-1.6187,-1.6203,-1.6203,-1.62,-1.6244,-1.6252,-1.628,-1.6228,-1.6357,-1.6361,-1.6364,-1.6403,-1.6411,-1.6417,0,0,0,0,0,-1.6095,-1.6139,-1.6131,-1.6139,-1.6178,-1.6213,-1.6218,-1.6214,-1.6193,-1.6214,-1.6218,-1.6203,-1.6272,-1.6249,-1.6257,-1.6287,-1.6355,-1.636,-1.6364,-1.64,-1.6409,-1.6417,0,0,0,0,0,0,-1.6128,-1.6141,-1.6132,-1.6181,-1.6197,-1.6209,-1.6235,-1.6224,-1.6245,-1.6241,-1.6233,-1.6237,-1.6281,-1.6288,-1.6261,-1.634,-1.631,-1.6317,-1.6335,-1.6344,-1.6351,-1.6349,-1.6231,0,0,0,0,0,-1.6141,-1.6169,-1.6178,-1.6221,-1.6229,-1.6231,-1.6246,-1.6241,-1.6256,-1.6262,-1.627,-1.6285,-1.631,-1.6327,-1.635,-1.6403,-1.6406,-1.6427,-1.6435,-1.6441,-1.6447,-1.6476,-1.6486,-1.6381,-1.6381,-1.6381,0,0,-1.6168,-1.6179,-1.6197,-1.6228,-1.6239,-1.6268,-1.6237,-1.6268,-1.6289,-1.6267,-1.6308,-1.6313,-1.633,-1.6378,-1.6399,-1.6384,-1.6476,-1.6446,-1.6451,-1.6454,-1.6481,-1.6491,-1.65,-1.6384,-1.6383,-1.6383,0,0,-1.6233,-1.6243,-1.6281,-1.6293,-1.631,-1.6311,-1.632,-1.6334,-1.6337,-1.6378,-1.6362,-1.6386,-1.643,-1.6443,-1.6455,-1.6524,-1.6511,-1.6532,-1.657,-1.6599,-1.6607,-1.6615,-1.6641,-1.665,-1.6537,-1.6537,-1.6537,0,-1.6265,-1.6308,-1.6302,-1.6335,-1.6349,-1.633,-1.6369,-1.638,-1.6404,-1.6415,-1.6398,-1.6452,-1.6462,-1.6513,-1.653,-1.654,-1.655,-1.6531,-1.6607,-1.6614,-1.6621,-1.6646,-1.6655,-1.654,-1.654,-1.6539,-1.6539,0,-1.6347,-1.6377,-1.6405,-1.643,-1.6447,-1.6483,-1.6481,-1.65,-1.6493,-1.6495,-1.6537,-1.6547,-1.6573,-1.6584,-1.6578,-1.6635,-1.6625,-1.6608,-1.6578,-1.6633,-1.6657,-1.6666,-1.6543,-1.6543,-1.6542,-1.6541,0,0,-1.6435,-1.6455,-1.6466,-1.6477,-1.6495,-1.6518,-1.6552,-1.6578,-1.6594,-1.6611,-1.664,-1.6677,-1.6661,-1.6675,-1.6669,-1.6694,-1.675,-1.6673,-1.6673,-1.6688,-1.6814,-1.6829,-1.684,-1.674,-1.6742,-1.6743,-1.6814,0,-1.6502,-1.6563,-1.6558,-1.6615,-1.6643,-1.6625,-1.6655,-1.6669,-1.6672,-1.6696,-1.6699,-1.6726,-1.6702,-1.671,-1.6734,-1.6738,-1.6775,-1.6732,-1.6768,-1.677,-1.6767,-1.6852,-1.6868,-1.6934,-1.6822,-1.6824,-1.6825,0,-1.6588,-1.6609,-1.667,-1.6684,-1.6695,-1.6723,-1.6746,-1.6769,-1.6784,-1.6784,-1.68,-1.679,-1.6825,-1.6793,-1.6841,-1.6812,-1.6826,-1.683,-1.6832,-1.6837,-1.6802,-1.6861,-1.6954,-1.6965,-1.6839,-1.6838,-1.6837,0,-1.6649,-1.6691,-1.6733,-1.6743,-1.676,-1.678,-1.6788,-1.6801,-1.6817,-1.6837,-1.6848,-1.6871,-1.6884,-1.6902,-1.6899,-1.6876,-1.6948,-1.6916,-1.695,-1.6951,-1.6968,-1.6967,-1.7067,-1.6974,-1.6974,-1.6974,-1.6973,0,-1.6725,-1.6763,-1.6761,-1.6787,-1.6829,-1.6822,-1.6864,-1.687,-1.6882,-1.6909,-1.6893,-1.6919,-1.6912,-1.6937,-1.6934,-1.6975,-1.6981,-1.6982,-1.6982,-1.6985,-1.6985,-1.6995,-1.6991,-1.6976,-1.6976,-1.6975,-1.6975,0,-1.68,-1.68,-1.6845,-1.6857,-1.6861,-1.6892,-1.6902,-1.6927,-1.6928,-1.6962,-1.697,-1.6972,-1.7001,-1.6999,-1.7031,-1.7029,-1.708,-1.7072,-1.7075,-1.7074,-1.7109,-1.7107,-1.7221,-1.7236,-1.7131,-1.7132,-1.7133,0,-1.685,-1.6879,-1.6895,-1.6912,-1.6921,-1.6949,-1.6965,-1.6959,-1.6977,-1.6996,-1.7019,-1.7046,-1.7068,-1.7114,-1.7119,-1.7143,-1.7138,-1.7176,-1.7141,-1.7144,-1.714,-1.7139,-1.7143,-1.7183,-1.7184,-1.7185,-1.7186,0,-1.6939,-1.6937,-1.6962,-1.6987,-1.7007,-1.7025,-1.7043,-1.7057,-1.7053,-1.7073,-1.7103,-1.712,-1.7153,-1.718,-1.7204,-1.7211,-1.7199,-1.7197,-1.7206,-1.7211,-1.7212,-1.7214,-1.7096,-1.7194,-1.7194,-1.7193,-1.7193,-1.7192,-1.7004,-1.703,-1.7045,-1.7073,-1.7085,-1.7102,-1.7126,-1.713,-1.7155,-1.7182,-1.7176,-1.721,-1.7224,-1.7254,-1.7264,-1.729,-1.7276,-1.7289,-1.7293,-1.7297,-1.7302,-1.7206,-1.7294,-1.7293,-1.7293,-1.7293,-1.7293,0,-1.7094,-1.7103,-1.7128,-1.7153,-1.7175,-1.7161,-1.7179,-1.7198,-1.7228,-1.7243,-1.7265,-1.7299,-1.7325,-1.7331,-1.7357,-1.7377,-1.7371,-1.7384,-1.7383,-1.7385,-1.7312,-1.7302,-1.7388,-1.7388,-1.7387,-1.7387,-1.7387,-1.7387,-1.7143,-1.7186,-1.7186,-1.7235,-1.7243,-1.7277,-1.7288,-1.7304,-1.7315,-1.7354,-1.7377,-1.7381,-1.7392,-1.7418,-1.7442,-1.7443,-1.7454,-1.7469,-1.7468,-1.74,-1.739,-1.7381,-1.7372,-1.7471,-1.7471,-1.7539,-1.754,-1.754]}]]